Wind_Speed
7 8 9 10 10 10 11 11 12 12 12 13 12 12 12 12 13 13 13 12 12 11 10 10 9 7 6 6 6 7 8 9 11 12 14 15 16 17 18 20 21 22 23
8 9 9 10 10 10 11 12 12 13 13 13 13 13 13 13 13 13 13 13 13 12 11 11 10 8 8 8 8 8 9 10 11 13 14 15 17 18 19 20 22 22 24
8 9 10 10 11 11 12 12 13 13 14 14 14 14 14 14 14 14 14 14 14 13 12 11 11 10 10 10 10 10 10 11 12 13 14 15 17 18 20 21 22 23 24
9 10 11 12 12 13 13 14 14 15 15 15 15 15 16 15 16 16 16 16 15 15 14 13 12 12 12 12 12 11 12 12 13 14 15 16 17 18 20 21 23 24 25
12 13 13 14 14 15 15 15 16 16 16 17 17 17 17 17 17 17 17 17 17 16 16 15 14 14 14 14 14 13 13 13 14 14 15 16 17 18 19 21 22 23 24
15 15 15 15 16 16 17 17 17 17 18 19 19 19 19 20 20 19 19 19 18 17 17 17 17 16 16 16 16 16 15 15 15 15 16 17 17 18 19 20 21 22 23
17 18 18 18 18 18 19 20 20 20 20 20 21 22 22 22 22 22 22 21 20 20 19 19 19 19 18 18 18 17 17 17 17 17 17 18 18 19 20 21 21 22 23
20 20 21 21 21 21 22 22 23 23 24 24 24 25 25 25 25 25 25 24 23 23 22 22 22 21 21 20 20 19 19 19 19 20 19 19 20 20 21 21 22 23 24
22 23 23 24 24 24 25 26 26 26 27 28 28 28 28 27 27 27 27 26 26 25 25 24 24 24 23 23 22 21 21 21 21 21 21 21 22 22 23 23 24 24 24
25 25 26 27 27 28 28 29 29 29 30 30 31 31 30 30 30 30 29 29 29 28 28 28 27 26 26 26 26 25 24 24 24 24 24 24 24 24 24 25 26 26 26
28 29 29 30 31 31 32 32 32 32 33 33 33 33 32 32 32 32 32 32 32 32 31 31 31 30 30 30 29 29 28 28 28 27 27 28 27 27 28 28 28 28 28
31 32 33 34 34 34 35 35 35 36 35 35 35 35 35 35 35 35 35 35 35 35 35 34 35 34 34 33 33 32 32 32 31 31 30 30 31 30 30 30 30 30 31
34 35 36 37 37 38 38 38 38 39 39 38 38 38 38 38 38 39 39 39 39 38 38 38 38 38 37 37 36 35 34 34 34 34 33 33 33 33 32 33 33 34 33
38 39 39 40 40 41 41 41 42 42 42 42 42 41 41 42 42 43 43 43 43 42 42 41 41 41 41 40 39 38 37 37 37 37 36 36 36 36 36 36 36 36 36
41 42 43 43 43 43 44 45 45 45 45 45 45 45 45 46 46 47 47 47 47 46 45 45 44 44 43 42 41 41 41 40 40 40 40 39 39 38 38 39 39 39 38
44 45 45 45 45 46 46 47 47 47 47 48 48 49 49 50 50 50 50 50 49 49 48 47 47 47 46 46 45 45 44 43 43 42 42 42 42 42 41 41 41 41 41
45 46 46 47 47 48 48 48 48 48 49 50 51 52 53 53 53 53 53 52 52 51 50 50 49 49 49 49 49 48 47 47 46 46 45 45 44 44 44 44 43 42 43
46 47 48 49 50 50 51 51 51 51 51 52 53 54 55 55 55 55 55 55 54 54 53 52 52 51 51 51 51 51 50 49 49 48 48 47 46 47 46 46 45 44 43
49 49 50 51 52 52 53 53 53 54 54 55 55 55 56 57 57 56 56 56 55 55 54 53 53 53 53 52 52 51 51 50 49 49 49 48 48 48 48 47 46 45 45
52 53 53 54 54 54 54 55 55 56 56 56 56 56 57 57 56 56 55 55 55 54 54 53 53 52 52 51 51 52 52 51 50 49 49 49 49 48 48 47 46 45 45
54 55 56 56 56 56 56 56 57 57 57 57 57 57 57 57 56 55 55 54 54 53 53 52 52 52 51 51 51 51 52 52 50 49 49 49 48 47 47 47 46 45 45
56 57 57 58 58 58 58 58 58 59 58 58 57 56 55 55 55 55 55 54 53 53 53 52 51 51 51 50 50 50 51 51 50 50 49 48 48 48 47 47 47 45 44
57 58 58 58 58 59 59 59 58 58 57 57 56 55 54 54 54 54 53 53 52 51 51 50 50 49 48 49 49 49 49 49 49 48 48 48 47 47 47 47 46 46 44
58 58 58 58 58 58 58 57 57 56 55 54 54 54 53 53 52 51 50 50 49 48 47 47 46 46 46 46 47 47 47 47 47 47 47 47 47 47 46 46 45 45 44
58 58 58 58 57 57 56 55 55 54 54 53 52 51 50 49 48 47 47 47 46 45 44 44 44 44 44 44 44 45 45 45 46 46 46 45 46 46 45 45 45 44 43
58 58 57 57 56 55 55 54 53 52 51 50 49 48 47 47 46 46 45 44 44 44 43 42 42 42 43 43 43 43 43 44 45 44 44 44 45 45 45 44 43 43 43
Wind_Direction
305 309 311 312 315 317 318 321 325 327 329 331 332 332 334 336 338 339 340 341 340 337 336 334 332 322 314 298 285 273 264 258 254 250 244 240 238 238 236 234 231 230 229
305 308 311 311 313 316 317 319 321 322 323 324 325 325 326 328 329 330 333 333 331 329 328 327 324 316 306 297 289 281 271 264 259 255 250 245 243 241 239 237 235 231 229
304 309 310 312 312 314 316 316 316 316 316 317 318 319 320 321 322 323 323 324 326 323 319 317 315 310 304 298 292 286 278 271 263 259 254 249 245 243 241 238 236 234 233
303 308 313 313 313 313 313 313 313 313 313 313 313 313 313 314 315 315 316 316 317 315 313 313 312 309 303 297 292 286 279 274 269 262 257 252 248 245 244 241 238 237 237
298 303 308 308 308 309 309 310 309 309 309 310 310 309 308 308 309 309 310 310 310 309 306 305 304 304 301 297 291 286 280 276 272 266 261 256 252 248 246 243 240 239 239
293 296 300 301 302 304 304 305 306 306 305 305 305 305 304 304 303 303 304 304 304 303 301 300 299 299 297 294 289 285 281 277 273 268 263 259 255 250 247 243 241 239 240
292 293 295 296 297 298 300 300 301 302 303 304 303 301 300 299 298 297 297 298 298 297 296 296 296 295 294 291 287 283 281 277 273 269 264 260 257 252 249 245 243 240 240
290 291 292 294 295 295 296 297 298 298 299 300 301 301 300 298 296 294 292 292 292 292 292 291 291 291 290 288 286 282 279 275 271 268 264 261 258 254 252 249 246 244 244
288 289 291 293 294 294 295 296 296 297 297 298 298 298 298 296 295 293 291 290 289 288 288 288 287 286 285 284 283 281 279 275 271 267 263 261 258 256 254 252 249 247 246
287 289 291 292 293 294 295 295 295 296 296 296 296 295 295 294 293 292 291 289 287 286 285 285 284 282 281 280 279 278 277 275 272 269 265 261 259 257 256 254 251 249 247
288 289 290 292 293 293 293 293 294 294 295 294 294 293 292 291 291 290 289 288 286 284 283 282 281 280 279 279 277 276 275 273 272 270 266 262 259 258 257 254 252 252 250
289 289 290 291 292 293 293 293 293 293 293 292 291 291 290 289 288 288 287 286 285 283 281 280 279 278 278 277 276 275 273 272 270 268 266 263 259 257 256 254 253 252 252
289 290 291 291 291 291 292 292 292 292 291 291 290 289 289 288 287 286 285 285 284 283 281 279 278 277 276 276 275 273 271 270 269 267 265 263 260 258 256 255 253 253 253
289 289 290 291 291 291 292 292 292 291 290 289 289 288 287 287 286 285 285 284 283 282 280 279 278 277 275 274 272 271 270 268 267 266 265 263 260 257 256 255 254 254 254
289 290 291 291 291 291 291 292 292 291 289 289 288 287 287 286 285 285 284 283 282 281 279 278 277 276 273 271 270 269 269 268 266 265 263 262 260 258 257 256 255 254 254
290 291 291 291 291 291 291 291 291 290 289 289 288 288 287 286 285 285 284 283 281 280 278 276 275 274 272 270 268 268 267 267 265 264 263 262 259 258 257 256 255 255 255
291 291 291 291 291 291 291 291 290 288 288 288 288 288 287 287 286 285 284 283 281 279 277 275 273 272 270 269 267 266 266 265 264 264 263 262 259 257 256 256 255 254 254
291 291 291 291 291 291 291 291 291 289 289 288 288 287 287 286 285 284 284 283 281 279 277 274 272 271 270 269 267 266 265 264 264 263 262 261 259 257 255 255 254 253 253
292 292 292 292 292 292 292 292 291 291 290 290 289 288 287 286 284 284 283 283 281 279 277 275 273 271 269 268 267 264 263 262 262 261 261 259 258 256 254 254 254 253 252
292 292 293 293 293 292 292 291 291 291 291 290 289 288 287 286 285 284 283 283 282 280 277 275 273 271 269 267 266 264 262 261 260 259 259 258 257 255 253 252 253 252 251
293 293 293 293 293 293 292 292 292 292 292 291 290 289 288 287 285 284 283 282 281 279 277 275 274 272 268 266 265 264 262 260 259 257 256 256 256 255 253 252 251 251 250
294 294 294 294 293 293 293 293 293 293 292 291 290 289 288 287 286 285 283 282 280 278 277 276 274 272 268 266 264 263 261 259 257 256 255 254 253 254 253 251 250 250 249
295 295 295 294 294 293 293 293 293 293 292 291 291 289 288 287 286 285 284 282 281 279 277 275 274 271 267 265 263 262 260 258 256 255 254 253 252 253 252 251 249 248 247
295 295 295 295 294 294 294 293 293 292 292 292 291 290 289 288 287 286 285 283 281 279 276 274 272 269 267 265 263 261 260 258 256 255 254 254 252 251 250 249 248 246 246
296 296 296 295 295 295 294 294 293 293 293 292 292 290 289 288 288 286 285 283 281 279 276 274 272 270 267 265 264 261 259 258 256 255 254 253 252 250 248 246 245 245 245
296 296 296 295 295 295 294 294 294 293 292 292 292 290 289 289 288 286 285 283 282 280 277 274 272 271 268 266 264 262 259 257 255 253 252 250 249 247 246 245 243 243 244
Height
5850 5849 5848 5847 5845 5843 5842 5840 5838 5836 5834 5832 5830 5828 5826 5824 5821 5819 5817 5815 5813 5811 5809 5807 5805 5804 5803 5802 5802 5802 5802 5802 5802 5803 5804 5805 5806 5807 5809 5811 5813 5815 5817
5848 5847 5846 5844 5843 5841 5839 5838 5836 5834 5832 5830 5828 5826 5824 5822 5820 5818 5816 5813 5811 5810 5808 5806 5804 5803 5802 5801 5800 5800 5799 5799 5799 5799 5800 5801 5802 5803 5804 5806 5808 5810 5812
5846 5845 5843 5842 5840 5839 5837 5835 5833 5832 5830 5828 5826 5824 5822 5820 5818 5816 5813 5811 5809 5807 5806 5804 5802 5801 5800 5799 5798 5797 5796 5796 5796 5796 5796 5796 5797 5798 5799 5800 5802 5804 5806
5843 5842 5841 5839 5837 5836 5834 5832 5831 5829 5827 5825 5823 5821 5819 5817 5815 5813 5811 5809 5807 5805 5803 5801 5800 5798 5797 5796 5795 5794 5793 5792 5792 5792 5792 5792 5792 5793 5794 5795 5797 5799 5801
5840 5839 5838 5836 5834 5832 5831 5829 5827 5825 5823 5821 5819 5817 5815 5813 5811 5809 5808 5806 5804 5802 5800 5798 5797 5795 5794 5792 5791 5790 5789 5789 5788 5788 5787 5787 5788 5788 5789 5790 5791 5793 5795
5837 5835 5834 5832 5830 5829 5827 5825 5823 5821 5819 5817 5815 5813 5811 5809 5807 5805 5803 5801 5800 5798 5796 5794 5793 5791 5790 5788 5787 5786 5785 5784 5784 5783 5783 5783 5783 5783 5784 5785 5786 5787 5789
5832 5831 5829 5828 5826 5824 5823 5821 5819 5817 5815 5812 5810 5808 5806 5803 5801 5799 5797 5796 5794 5793 5791 5790 5788 5787 5785 5783 5782 5781 5780 5779 5779 5778 5778 5778 5778 5778 5778 5779 5780 5781 5783
5827 5825 5824 5823 5821 5819 5817 5815 5813 5811 5809 5806 5804 5801 5799 5797 5794 5793 5791 5789 5788 5786 5785 5783 5782 5780 5779 5777 5776 5775 5774 5773 5772 5772 5772 5772 5772 5772 5773 5773 5774 5775 5776
5821 5820 5818 5816 5814 5812 5810 5808 5806 5804 5801 5799 5796 5794 5791 5789 5787 5785 5783 5781 5780 5779 5777 5776 5775 5773 5772 5770 5769 5768 5767 5766 5766 5765 5765 5765 5766 5766 5766 5767 5768 5768 5769
5814 5813 5811 5809 5807 5805 5802 5800 5798 5796 5793 5790 5788 5785 5783 5780 5778 5776 5774 5773 5771 5770 5769 5768 5766 5765 5764 5763 5762 5761 5760 5759 5758 5758 5758 5758 5758 5759 5759 5759 5760 5761 5762
5807 5805 5803 5801 5798 5796 5794 5791 5789 5786 5784 5781 5779 5776 5773 5771 5768 5766 5764 5762 5761 5760 5759 5758 5757 5756 5755 5754 5753 5752 5751 5750 5749 5749 5749 5749 5750 5750 5751 5751 5752 5753 5754
5798 5796 5794 5791 5789 5786 5784 5781 5778 5776 5773 5771 5768 5766 5763 5760 5758 5756 5754 5752 5750 5749 5748 5747 5746 5745 5744 5743 5742 5741 5740 5740 5739 5739 5739 5739 5740 5741 5741 5742 5743 5744 5745
5789 5786 5784 5781 5779 5776 5773 5770 5767 5764 5762 5759 5757 5755 5752 5749 5747 5744 5742 5740 5738 5737 5736 5735 5734 5733 5732 5731 5730 5729 5729 5728 5728 5728 5728 5728 5729 5730 5731 5731 5732 5733 5735
5778 5776 5773 5770 5767 5764 5761 5758 5755 5752 5749 5747 5745 5742 5740 5737 5734 5732 5729 5727 5725 5724 5723 5722 5721 5720 5719 5718 5718 5717 5716 5716 5716 5716 5716 5716 5717 5718 5719 5720 5721 5722 5724
5766 5764 5761 5758 5755 5752 5749 5745 5742 5739 5735 5733 5730 5728 5725 5723 5720 5717 5715 5713 5711 5709 5708 5707 5706 5705 5705 5704 5704 5703 5703 5703 5703 5703 5703 5703 5704 5705 5706 5707 5709 5710 5712
5754 5751 5748 5744 5741 5738 5735 5732 5728 5724 5721 5717 5715 5712 5709 5707 5704 5702 5699 5697 5695 5693 5691 5691 5690 5689 5689 5689 5689 5689 5688 5688 5688 5688 5689 5689 5690 5691 5692 5694 5695 5697 5699
5741 5737 5734 5731 5727 5724 5720 5717 5714 5711 5706 5702 5699 5695 5693 5690 5687 5685 5682 5680 5677 5675 5674 5673 5672 5672 5671 5671 5672 5672 5672 5672 5672 5673 5673 5674 5675 5676 5678 5679 5680 5682 5685
5727 5723 5720 5716 5712 5709 5705 5701 5697 5694 5692 5688 5683 5679 5675 5672 5669 5666 5663 5661 5659 5657 5655 5655 5654 5653 5653 5653 5653 5654 5654 5655 5656 5656 5657 5658 5659 5660 5662 5663 5665 5667 5670
5713 5709 5705 5701 5697 5693 5689 5685 5681 5677 5673 5670 5666 5662 5657 5654 5651 5648 5644 5642 5640 5638 5636 5635 5634 5634 5634 5634 5634 5635 5636 5637 5638 5639 5640 5641 5642 5644 5646 5648 5650 5652 5654
5698 5694 5689 5685 5681 5677 5672 5668 5664 5660 5656 5652 5648 5644 5639 5635 5632 5629 5626 5623 5620 5618 5616 5615 5614 5614 5613 5614 5614 5615 5617 5618 5619 5621 5622 5624 5625 5627 5629 5632 5634 5637 5639
5682 5678 5673 5668 5664 5659 5655 5650 5646 5642 5637 5633 5629 5624 5620 5616 5613 5610 5607 5604 5601 5599 5597 5596 5595 5594 5594 5594 5595 5595 5597 5599 5601 5603 5605 5607 5609 5611 5613 5616 5618 5621 5624
5666 5661 5656 5651 5646 5642 5637 5632 5628 5623 5619 5614 5610 5606 5601 5597 5593 5590 5587 5584 5582 5579 5578 5576 5575 5575 5574 5575 5575 5576 5578 5580 5582 5585 5587 5589 5592 5594 5597 5600 5603 5606 5609
5649 5644 5639 5634 5629 5624 5619 5614 5609 5604 5600 5595 5591 5587 5583 5578 5574 5571 5567 5565 5562 5560 5559 5557 5556 5556 5556 5556 5557 5558 5560 5562 5565 5567 5570 5572 5575 5578 5581 5584 5587 5591 5594
5632 5626 5621 5616 5611 5606 5601 5596 5591 5586 5581 5577 5572 5568 5564 5560 5556 5553 5549 5547 5544 5542 5540 5539 5538 5537 5538 5538 5539 5540 5542 5544 5547 5550 5553 5556 5559 5562 5565 5569 5572 5576 5580
5614 5609 5604 5598 5593 5588 5583 5578 5574 5569 5564 5560 5555 5551 5547 5543 5540 5536 5533 5530 5528 5526 5524 5522 5521 5521 5521 5522 5523 5524 5526 5528 5530 5533 5536 5540 5543 5546 5549 5554 5558 5562 5565
5597 5592 5586 5581 5576 5571 5566 5562 5557 5552 5548 5543 5539 5535 5531 5527 5524 5521 5518 5515 5512 5510 5509 5507 5506 5506 5506 5506 5507 5508 5509 5511 5514 5516 5519 5523 5527 5531 5535 5539 5544 5548 5551